Back to catalog

GOMX-1

GOMX 1

AliveAmateur RadioSSO
NORAD 39430·PAYLOAD·🇩🇰 Denmark

Launched Nov 21, 2013 from Dombarovsky

Loading…

Next Passes (next 24 hours)

TLE

FreshSource: Space-Track

Epoch: Sep 14, 2026, 14:03 UTC

1 39430U 13066Q   26257.58553654  .00001380  00000-0  21164-3 0  9997
2 39430  97.6433  92.4140 0128579 149.5948 211.2798 14.69693358683040

Track GOMX-1 in real time with AllMySat

Download on the App Store